Regional Weather Roundup
Issued by NWS

Home | Current Version | Previous Version | Text Only | Print | Product List | Glossary On
Versions: 1 2 3 4 5 6 7 8 9 10 11 12 13 14 15 16 17 18 19 20 21 22 23 24 25 26 27 28 29 30 31 32 33 34 35 36 37 38 39 40 41 42 43 44 45 46 47 48 49 50
000
ASCA42 TJSJ 290711
RWRPR
PUERTO RICO/U.S. VIRGIN ISLANDS HOURLY WEATHER ROUNDUP
NATIONAL WEATHER SERVICE SAN JUAN PR
300 AM AST TUE JUL 29 2014

PRZ001-004-290800-
PUERTO RICO

CITY           SKY/WX    TMP DP  RH WIND       PRES   REMARKS
SAN JUAN LMM   PTCLDY    81  72  74 SE5       30.01F
PONCE          PTCLDY    75  70  83 NE6       29.99
CEIBA          PTCLDY    81  72  74 E6        30.04F
$$

PRZ006-007-290800-
U.S. VIRGIN ISLANDS

CITY           SKY/WX    TMP DP  RH WIND       PRES   REMARKS
CHARLOTTE AMA  CLEAR     81  73  78 E6        30.01F
CHRISTIANSTED  PTCLDY    79  72  78 NE6       30.02F
$$

HOURLY WEATHER ROUNDUP FOR THE NEWS MEDIA

CITY           SKY/WX    TMP DP  RH WIND       PRES   REMARKS
MIAMI          MOCLDY    80  75  84 SW5       30.01F
ORLANDO        PTCLDY    82  76  81 SW9       29.95F
NEW YORK       PTCLDY    67  55  65 NW13G21   29.75R
NEWARK         PTCLDY    66  55  67 NW7       29.76R
CHICAGO        PTCLDY    64  51  62 NW8       30.04F
HARTFORD       CLEAR     67  61  81 SW6       29.63R
BOSTON         CLEAR     67  59  75 W16       29.62R
DALLAS         MOCLDY    80  60  50 NE3       30.10F
PHILADELPHIA   CLEAR     68  55  63 NW8       29.81R


USA.gov is the U.S. government's official web portal to all federal, state and local government web resources and services.